sat.trackr.live / text

‹ back to catalog

STARLINK-30195

NORAD 57406 · 2023-102C

PAYLOAD ACTIVE UNKNOWN

§ Identity

Operator
Country
US
Launch date
2023-07-20
Launch site
AFWTR
Launch vehicle
Mass (kg)
RCS (m²)

Purposes: comms

External: N2YO · Heavens-Above · Gunter

§ Orbital elements

Epoch: 2026-05-24T13:56:52.857312Z

Period
94.32 min
Inclination
43.0029°
Eccentricity
0.0001677
Mean motion
15.26746871 rev/d
Perigee alt
484.4 km
Apogee alt
486.7 km
Semi-major
6,863.7 km
B*
6.6075e-5
RAAN
187.0690°
Arg perigee
279.9873°
Mean anomaly
80.0789°
Rev number
15,776

§ Raw data

STARLINK-301951 57406U 23102C   26144.58116733  .00001513  00000+0  66075-4 0  99982 57406  43.0029 187.0690 0001677 279.9873  80.0789 15.26746871157764

JSON: /api/v1/satellites/57406 · /tle

For live sub-satellite position, see the globe view (requires WebGL).

§ Visibility from observer

Set your observer location to see the next 7 days of passes ≥ 10°. The values pass through the URL so the page stays shareable.

No JS? Fill the form by hand. The geolocation button needs JavaScript.